| time (UTC) | temp C | wind direction | speed KPH | gust KPH | rain 1hr cm | rain 24hr cm | rain mn cm | humidity % | barometer mb |
| 20260506044551 | 0 | 298 | 1.6 | 4.8 | 0.00 | 0.00 | 0.00 | 43 | 1019.3 |
| 20260506043037 | 1 | 298 | 1.6 | 6.4 | 0.00 | 0.00 | 0.00 | 44 | 1019.4 |
| 20260506041547 | 2 | 0 | 3.2 | 12.9 | 0.00 | 0.00 | 0.00 | 44 | 1019.3 |
| 20260506040044 | 1 | 354 | 11.3 | 14.5 | 0.00 | 0.00 | 0.00 | 45 | 1019.4 |
| 20260506034538 | 2 | 5 | 11.3 | 16.1 | 0.00 | 0.00 | 0.00 | 43 | 1019.3 |
| 20260506033038 | 3 | 2 | 9.7 | 12.9 | 0.00 | 0.00 | 0.00 | 42 | 1019.2 |
| 20260506031553 | 2 | 354 | 9.7 | 12.9 | 0.00 | 0.00 | 0.00 | 42 | 1019.3 |
| 20260506030048 | 3 | 359 | 8.0 | 12.9 | 0.00 | 0.00 | 0.00 | 39 | 1019.1 |
| 20260506024538 | 5 | 360 | 8.0 | 9.7 | 0.00 | 0.00 | 0.00 | 37 | 1019.0 |
| 20260506023040 | 5 | 4 | 9.7 | 19.3 | 0.00 | 0.00 | 0.00 | 36 | 1019.1 |
| 20260506021535 | 6 | 348 | 12.9 | 20.9 | 0.00 | 0.00 | 0.00 | 34 | 1019.1 |
| 20260506020037 | 6 | 329 | 16.1 | 27.4 | 0.00 | 0.00 | 0.00 | 34 | 1018.9 |
| 20260506014538 | 6 | 341 | 17.7 | 29.0 | 0.00 | 0.00 | 0.00 | 33 | 1018.9 |
| 20260506013041 | 7 | 347 | 22.5 | 32.2 | 0.00 | 0.00 | 0.00 | 32 | 1018.9 |
| 20260506011537 | 7 | 359 | 20.9 | 32.2 | 0.00 | 0.00 | 0.00 | 32 | 1018.7 |
| 20260506010040 | 7 | 360 | 19.3 | 30.6 | 0.00 | 0.00 | 0.00 | 32 | 1018.7 |
| 20260506004605 | 7 | 352 | 19.3 | 30.6 | 0.00 | 0.00 | 0.00 | 32 | 1018.6 |
| 20260506003038 | 7 | 349 | 22.5 | 45.1 | 0.00 | 0.00 | 0.00 | 31 | 1018.7 |
| 20260506001537 | 7 | 359 | 20.9 | 37.0 | 0.00 | 0.00 | 0.00 | 32 | 1018.7 |
| 20260506000041 | 7 | 351 | 22.5 | 37.0 | 0.00 | 0.00 | 0.00 | 31 | 1018.7 |
| 20260505234604 | 8 | 333 | 24.1 | 41.8 | 0.00 | 0.00 | 0.00 | 32 | 1018.7 |
| 20260505233041 | 8 | 324 | 27.4 | 40.2 | 0.00 | 0.00 | 0.00 | 31 | 1018.7 |
| 20260505231539 | 8 | 350 | 27.4 | 38.6 | 0.00 | 0.00 | 0.00 | 32 | 1018.6 |
| 20260505230047 | 8 | 354 | 25.7 | 38.6 | 0.00 | 0.00 | 0.00 | 32 | 1018.7 |
| 20260505224541 | 8 | 339 | 32.2 | 46.7 | 0.00 | 0.00 | 0.00 | 33 | 1018.6 |
| 20260505223058 | 8 | 352 | 25.7 | 38.6 | 0.00 | 0.00 | 0.00 | 32 | 1018.6 |
| 20260505221556 | 7 | 357 | 30.6 | 41.8 | 0.00 | 0.00 | 0.00 | 33 | 1018.6 |
| 20260505220048 | 7 | 279 | 25.7 | 40.2 | 0.00 | 0.00 | 0.00 | 32 | 1018.7 |
| 20260505214543 | 8 | 319 | 20.9 | 48.3 | 0.00 | 0.00 | 0.00 | 33 | 1018.8 |
| 20260505213046 | 7 | 353 | 22.5 | 45.1 | 0.00 | 0.00 | 0.00 | 32 | 1018.8 |
| 20260505211537 | 7 | 308 | 25.7 | 41.8 | 0.00 | 0.00 | 0.00 | 34 | 1019.1 |
| 20260505210044 | 7 | 325 | 17.7 | 46.7 | 0.00 | 0.00 | 0.00 | 36 | 1019.0 |
| 20260505204540 | 7 | 6 | 30.6 | 38.6 | 0.00 | 0.00 | 0.00 | 35 | 1019.2 |
| 20260505203037 | 7 | 315 | 22.5 | 41.8 | 0.00 | 0.00 | 0.00 | 35 | 1019.4 |
| 20260505201537 | 6 | 341 | 25.7 | 40.2 | 0.00 | 0.00 | 0.00 | 37 | 1019.3 |
| 20260505200042 | 7 | 330 | 25.7 | 45.1 | 0.00 | 0.00 | 0.00 | 37 | 1019.4 |
| 20260505194538 | 7 | 331 | 24.1 | 35.4 | 0.00 | 0.00 | 0.00 | 38 | 1019.3 |
| 20260505193036 | 6 | 322 | 25.7 | 41.8 | 0.00 | 0.00 | 0.00 | 37 | 1019.3 |
| 20260505191537 | 6 | 324 | 27.4 | 40.2 | 0.00 | 0.00 | 0.00 | 39 | 1019.4 |
| 20260505190047 | 6 | 352 | 25.7 | 40.2 | 0.00 | 0.00 | 0.00 | 40 | 1019.2 |
| 20260505184535 | 6 | 335 | 30.6 | 40.2 | 0.00 | 0.00 | 0.00 | 41 | 1019.3 |
| 20260505183045 | 6 | 348 | 22.5 | 43.5 | 0.00 | 0.00 | 0.00 | 39 | 1019.3 |
| 20260505181538 | 6 | 331 | 27.4 | 46.7 | 0.00 | 0.00 | 0.00 | 40 | 1019.4 |
| 20260505180035 | 6 | 330 | 25.7 | 40.2 | 0.00 | 0.00 | 0.00 | 41 | 1019.5 |
| 20260505174545 | 6 | 334 | 29.0 | 43.5 | 0.00 | 0.00 | 0.00 | 41 | 1019.4 |
| 20260505173044 | 5 | 20 | 25.7 | 40.2 | 0.00 | 0.00 | 0.00 | 43 | 1019.5 |
| 20260505171537 | 5 | 331 | 25.7 | 40.2 | 0.00 | 0.00 | 0.00 | 45 | 1019.6 |
| 20260505170038 | 5 | 322 | 22.5 | 35.4 | 0.00 | 0.00 | 0.00 | 43 | 1019.6 |
| 20260505164538 | 5 | 348 | 24.1 | 35.4 | 0.00 | 0.00 | 0.00 | 49 | 1019.5 |
| 20260505163039 | 5 | 323 | 25.7 | 35.4 | 0.00 | 0.00 | 0.00 | 48 | 1019.6 |
| 20260505161535 | 4 | 342 | 20.9 | 33.8 | 0.00 | 0.00 | 0.00 | 51 | 1019.5 |
| 20260505153045 | 3 | 321 | 16.1 | 24.1 | 0.00 | 0.00 | 0.00 | 57 | 1019.8 |
| 20260505151535 | 3 | 337 | 17.7 | 25.7 | 0.00 | 0.00 | 0.00 | 57 | 1019.8 |
| 20260505124538 | 1 | 325 | 11.3 | 17.7 | 0.00 | 0.00 | 0.00 | 67 | 1018.7 |
| 20260505123037 | 0 | 338 | 11.3 | 17.7 | 0.00 | 0.00 | 0.00 | 68 | 1018.5 |
| 20260505121540 | 0 | 327 | 12.9 | 17.7 | 0.00 | 0.00 | 0.00 | 67 | 1018.4 |
| 20260505120047 | 1 | 331 | 16.1 | 20.9 | 0.00 | 0.00 | 0.00 | 68 | 1018.6 |
| 20260505114540 | 1 | 335 | 16.1 | 19.3 | 0.00 | 0.00 | 0.00 | 68 | 1018.6 |
| 20260505113037 | 1 | 326 | 17.7 | 24.1 | 0.00 | 0.00 | 0.00 | 67 | 1018.4 |
| 20260505111538 | 1 | 324 | 14.5 | 20.9 | 0.00 | 0.00 | 0.00 | 67 | 1018.2 |
| 20260505101542 | 2 | 351 | 14.5 | 19.3 | 0.00 | 0.00 | 0.00 | 56 | 1018.3 |
| 20260505100040 | 2 | 347 | 14.5 | 19.3 | 0.00 | 0.00 | 0.00 | 55 | 1018.3 |
| 20260505094537 | 2 | 335 | 16.1 | 20.9 | 0.00 | 0.00 | 0.00 | 54 | 1018.1 |
| 20260505093043 | 3 | 347 | 12.9 | 19.3 | 0.00 | 0.00 | 0.00 | 54 | 1018.1 |
| 20260505091539 | 3 | 351 | 14.5 | 17.7 | 0.00 | 0.00 | 0.00 | 54 | 1018.1 |
| 20260505090038 | 3 | 349 | 12.9 | 17.7 | 0.00 | 0.00 | 0.00 | 55 | 1018.1 |
| 20260505084545 | 3 | 345 | 11.3 | 16.1 | 0.00 | 0.00 | 0.00 | 56 | 1018.2 |
| 20260505083038 | 3 | 352 | 9.7 | 14.5 | 0.00 | 0.00 | 0.00 | 56 | 1018.0 |
| 20260505081537 | 3 | 349 | 12.9 | 16.1 | 0.00 | 0.00 | 0.00 | 55 | 1018.1 |
| 20260505080037 | 3 | 354 | 11.3 | 16.1 | 0.00 | 0.00 | 0.00 | 54 | 1018.0 |
| 20260505074539 | 3 | 357 | 8.0 | 12.9 | 0.00 | 0.00 | 0.00 | 52 | 1017.9 |
| 20260505073043 | 3 | 4 | 6.4 | 14.5 | 0.00 | 0.00 | 0.00 | 51 | 1017.8 |
| 20260505071538 | 4 | 356 | 11.3 | 17.7 | 0.00 | 0.00 | 0.00 | 51 | 1018.0 |
| 20260505070043 | 5 | 329 | 17.7 | 27.4 | 0.00 | 0.00 | 0.00 | 53 | 1017.9 |
| 20260505064537 | 4 | 303 | 12.9 | 19.3 | 0.00 | 0.00 | 0.00 | 53 | 1017.9 |
| 20260505063036 | 3 | 325 | 6.4 | 11.3 | 0.00 | 0.00 | 0.00 | 53 | 1018.0 |
| 20260505061541 | 3 | 330 | 6.4 | 11.3 | 0.00 | 0.00 | 0.00 | 54 | 1017.9 |
| 20260505060039 | 2 | 345 | 9.7 | 12.9 | 0.00 | 0.00 | 0.00 | 55 | 1017.9 |